User: anonymous   Login
Location: Gugi
(45.4667°N, 11.1000°E)
Time: 08:02:41
(UTC+00:00)
Language:

Cosmos 724 - Orbit

View from above orbital plane
View from above orbital plane
View from above satellite
View from above satellite

Ground track
Ground track

The orbit data is extracted from the following two-line orbital elements,

1  7727U 75025A   20026.17190814 -.00000102  00000-0 -10087-4 0  9998
2  7727  65.5909 359.1523 0047017 123.1472 237.4125 13.98921408289475
Epoch (UTC): 26 January 2020 04:07:32
Eccentricity: 0.0047017
inclination: 65.5909°
perigee height: 863 km
apogee height: 932 km
right ascension of ascending node: 359.1523°
argument of perigee: 123.1472°
revolutions per day: 13.98921408
mean anomaly at epoch: 237.4125°
orbit number at epoch: 28947

The dashed part of the orbit path shows where the satellite is in the earth's shadow,  

DLR